| Date | Time | Temp. (oF) | Dew Point (oF) | Rel. Hum. (%) | Press. (in.) | Wind Dir. | Wind Speed (mph) | Hourly Rainfall (in.) |
|
|---|---|---|---|---|---|---|---|---|---|
| 1 | 01/13 | 00:00 | 34 | 29 | 83 | 30.25 | NE | 12 | 0.00 |
| 2 | 01/12 | 23:00 | 35 | 33 | 94 | 30.23 | N | 5 | 0.00 |
| 3 | 01/12 | 22:00 | 34 | 32 | 96 | 30.19 | N | 3 | 0.00 |
| 4 | 01/12 | 21:00 | 34 | 32 | 96 | 30.17 | W | 0 | 0.01 |
| 5 | 01/12 | 20:00 | 33 | 31 | 96 | 30.15 | WNW | 0 | 0.00 |
| 6 | 01/12 | 19:00 | 33 | 31 | 96 | 30.13 | W | 2 | 0.00 |
| 7 | 01/12 | 18:00 | 33 | 31 | 96 | 30.13 | WNW | 3 | 0.00 |
| 8 | 01/12 | 17:00 | 33 | 31 | 96 | 30.14 | W | 3 | 0.00 |
| 9 | 01/12 | 16:00 | 33 | 31 | 95 | 30.13 | NE | 3 | 0.00 |
| 10 | 01/12 | 15:00 | 33 | 31 | 95 | 30.12 | NNW | 0 | 0.00 |
| 11 | 01/12 | 14:00 | 33 | 31 | 95 | 30.13 | N | 0 | 0.00 |
| 12 | 01/12 | 13:00 | 32 | 30 | 95 | 30.15 | N | 0 | 0.10 |
| 13 | 01/12 | 12:00 | 32 | 30 | 96 | 30.18 | NNE | 0 | 0.07 |
| 14 | 01/12 | 11:00 | 32 | 31 | 97 | 30.24 | SE | 0 | 0.08 |
| 15 | 01/12 | 10:00 | 31 | 30 | 97 | 30.27 | N | 0 | 0.04 |
| 16 | 01/12 | 09:00 | 31 | 30 | 97 | 30.30 | SE | 0 | 0.04 |
| 17 | 01/12 | 08:00 | 31 | 30 | 97 | 30.31 | S | 0 | 0.06 |
| 18 | 01/12 | 07:00 | 31 | 30 | 97 | 30.33 | S | 5 | 0.03 |
| 19 | 01/12 | 06:00 | 31 | 29 | 96 | 30.33 | S | 0 | 0.00 |
| 20 | 01/12 | 05:00 | 31 | 29 | 96 | 30.35 | SSW | 0 | 0.02 |
| 21 | 01/12 | 04:00 | 30 | 29 | 96 | 30.39 | SSE | 0 | 0.02 |
| 22 | 01/12 | 03:00 | 30 | 28 | 94 | 30.44 | S | 0 | 0.05 |
| 23 | 01/12 | 02:00 | 30 | 27 | 91 | 30.45 | SSW | 4 | 0.01 |
| 24 | 01/12 | 01:00 | 30 | 26 | 87 | 30.45 | SSE | 0 | 0.02 |